Location: Vassar Physics Lab
(41.6843°N, 73.8954°W)
Time: 15:59:42
(UTC-04:00)

CZ-4B DEB - Visible Passes

Search period start: 30 August 2015 00:00
Search period end: 09 September 2015 00:00
Orbit: 841 x 864 km, 98.9° (Epoch: 29 August)

Date Brightness Start Highest point End Pass type
(mag) Time Alt. Az. Time Alt. Az. Time Alt. Az.
30 Aug 6.4 03:22:20 10° NE 03:26:00 19° E 03:29:53 10° SE visible
30 Aug 4.3 05:01:50 10° N 05:07:12 58° WNW 05:12:17 11° SSW visible
31 Aug 6.7 03:11:44 10° ENE 03:14:36 15° E 03:17:44 10° ESE visible
31 Aug 4.1 04:50:32 10° N 04:55:59 72° WNW 05:00:50 13° SSW visible
01 Sep 6.8 03:01:40 10° ENE 03:03:09 11° E 03:05:00 10° ESE visible
01 Sep 4.1 04:39:16 10° NNE 04:44:46 89° WNW 04:49:23 15° SSW visible
02 Sep 4.3 04:28:02 10° NNE 04:33:31 74° ESE 04:37:56 16° S visible
03 Sep 4.7 04:16:51 10° NNE 04:22:15 58° E 04:26:29 17° S visible
04 Sep 5.1 04:05:43 10° NNE 04:10:58 46° E 04:15:02 17° SSE visible
04 Sep 5.3 05:47:03 10° N 05:51:28 25° WNW 05:55:46 10° WSW visible
05 Sep 5.5 03:54:38 10° NNE 03:59:39 37° E 04:03:34 16° SSE visible
05 Sep 5.1 05:35:33 10° N 05:40:19 31° WNW 05:45:00 10° SW visible
06 Sep 5.8 03:43:37 10° NE 03:48:19 29° E 03:52:07 14° SSE visible
06 Sep 4.8 05:24:08 10° N 05:29:09 38° WNW 05:34:08 10° SW visible
07 Sep 6.2 03:32:41 10° NE 03:36:57 23° E 03:40:40 13° SE visible
07 Sep 4.5 05:12:43 10° N 05:17:58 47° WNW 05:22:42 12° SW visible
08 Sep 6.5 03:21:54 10° NE 03:25:34 19° E 03:29:13 11° SE visible
08 Sep 4.3 05:01:23 10° N 05:06:46 58° WNW 05:11:15 15° SSW visible
